Location: Unspecified
(0.0000°N, 0.0000°E)
Time: 07:04:05
(UTC+00:00)

Vanguard 2 Rocket - Pass Details

Date: 05 October 2023
Orbit: 552 x 3312 km, 32.9° (Epoch: 06 December)

Event Time Altitude Azimuth Distance (km) Brightness Sun altitude
Rises 15:43:59 0° 311° (NW) 7,288 12.1 31.0°
Reaches altitude 10° 15:49:09 10° 315° (NW) 6,236 11.8 29.7°
Maximum altitude 16:08:25 63° 33° (NNE) 2,865 9.6 24.9°
Drops below altitude 10° 16:20:48 10° 111° (ESE) 4,239 9.9 21.8°
Sets 16:23:34 0° 114° (ESE) 4,927 10.2 21.1°
